Weather History for Sault Ste Marie, MI

Change the Weather History Date:

Sunday, December 9, 2012

  Actual Average Record
Temperature  
Mean Temperature 23 °F 25 °F  
Max Temperature 26 °F 31 °F 51 °F (1946)
Min Temperature 20 °F 19 °F -20 °F (1976)
Degree Days  
Heating Degree Days 42 40  
Month to date heating degree days 299 349  
Since 1 July heating degree days 2087 2281  
Moisture  
Dew Point 17 °F    
Average Humidity 78    
Maximum Humidity 88    
Minimum Humidity 68    
Precipitation  
Precipitation 0.21 in 0.09 in 1.46 in (1995)
Month to date precipitation 1.03 0.91  
Year to date precipitation 27.24 31.07  
Snow  
Snow 2.50 in 1.00 in 19.40 in (1995)
Month to date snowfall 5.3 8.9  
Since 1 July snowfall 28.3 25.6  
Snow Depth 2.00 in    
Sea Level Pressure  
Sea Level Pressure 30.06 in    
Wind  
Wind Speed 7 mph (ENE)    
Max Wind Speed 14 mph    
Max Gust Speed 20 mph    
Visibility 5 miles    
Events Snow    
T = Trace of Precipitation, MM = Missing Value Source: NWS Daily Summary

Daily Weather History Graph

Daily Weather History Graph

Search for Another Location

Airport:

Trip Planner

Search our weather history database for the weather conditions in past years. The results will help you decide how hot, cold, wet, or windy it might be!

Date:

Astronomy

Dec. 09, 2012 Rise Set
Actual Time 8:09 AM EST 4:50 PM EST
Civil Twilight 7:34 AM EST 5:25 PM EST
Nautical Twilight 6:56 AM EST 6:03 PM EST
Astronomical Twilight 6:20 AM EST 6:39 PM EST
Moon 3:30 AM EST (12/9) 2:06 PM EST (12/9)
Length of Visible Light 9h 50m
Length of Day
8h 40m
Waning Crescent, 19% of the Moon is Illuminated
Dec 9
Waning Crescent
Dec 13
New
Dec 20
First Quarter
Dec 28
Full
Jan 4
Last Quarter

Hourly Weather History & Observations

Time (EST) Temp. Windchill Dew Point Humidity Pressure Visibility Wind Dir Wind Speed Gust Speed Precip Events Conditions
12:55 AM 26.1 °F 20.5 °F 19.0 °F 75% 30.21 in 10.0 mi ENE 4.6 mph - 0.00 in   Overcast
1:55 AM 25.0 °F 19.3 °F 19.0 °F 78% 30.23 in 10.0 mi East 4.6 mph - N/A   Overcast
2:55 AM 23.0 °F 18.4 °F 19.0 °F 85% 30.25 in 10.0 mi ESE 3.5 mph - 0.00 in   Overcast
3:55 AM 24.1 °F 16.0 °F 19.0 °F 81% 30.27 in 10.0 mi SSE 6.9 mph - N/A   Overcast
4:45 AM 24.1 °F 18.2 °F 19.0 °F 81% 30.24 in 10.0 mi ESE 4.6 mph - N/A   Overcast
4:55 AM 24.1 °F 18.2 °F 18.0 °F 77% 30.28 in 10.0 mi East 4.6 mph - N/A   Overcast
5:55 AM 23.0 °F 18.4 °F 18.0 °F 81% 30.29 in 10.0 mi ENE 3.5 mph - N/A   Overcast
6:55 AM 23.0 °F 17.0 °F 18.0 °F 81% 30.29 in 10.0 mi ESE 4.6 mph - N/A   Overcast
7:55 AM 23.0 °F 15.8 °F 17.1 °F 78% 30.26 in 10.0 mi ENE 5.8 mph - 0.00 in   Overcast
8:55 AM 23.0 °F 15.8 °F 16.0 °F 74% 30.27 in 10.0 mi East 5.8 mph - N/A   Overcast
9:55 AM 24.1 °F 16.0 °F 17.1 °F 75% 30.29 in 10.0 mi East 6.9 mph - N/A   Overcast
10:55 AM 24.1 °F 16.0 °F 16.0 °F 71% 30.29 in 10.0 mi ESE 6.9 mph - N/A   Overcast
11:55 AM 25.0 °F 16.3 °F 16.0 °F 69% 30.23 in 10.0 mi East 8.1 mph - N/A   Overcast
12:55 PM 24.1 °F 15.2 °F 16.0 °F 71% 30.22 in 10.0 mi East 8.1 mph - N/A   Overcast
1:55 PM 24.1 °F 14.4 °F 16.0 °F 71% 30.20 in 10.0 mi East 9.2 mph - N/A   Overcast
2:55 PM 24.1 °F 16.0 °F 15.1 °F 69% 30.17 in 10.0 mi East 6.9 mph - N/A   Overcast
3:55 PM 25.0 °F 17.1 °F 16.0 °F 69% 30.13 in 10.0 mi East 6.9 mph - N/A   Overcast
4:55 PM 25.0 °F 19.3 °F 16.0 °F 69% 30.10 in 10.0 mi East 4.6 mph - N/A   Overcast
5:43 PM 24.1 °F 13.1 °F 15.1 °F 69% 30.05 in 2.5 mi East 11.5 mph - 0.00 in Snow Light Snow
5:55 PM 24.1 °F 14.4 °F 15.1 °F 69% 30.07 in 2.0 mi East 9.2 mph - 0.00 in Snow Light Snow
6:03 PM 23.0 °F 11.1 °F 16.0 °F 74% 30.02 in 1.5 mi East 12.7 mph 18.4 mph 0.00 in Snow Light Snow
6:24 PM 21.9 °F 11.0 °F 16.0 °F 78% 30.00 in 2.5 mi East 10.4 mph - 0.00 in Snow Light Snow
6:32 PM 21.9 °F 13.4 °F 17.1 °F 82% 30.00 in 4.0 mi East 6.9 mph - 0.00 in Snow Light Snow
6:39 PM 21.9 °F 12.5 °F 17.1 °F 82% 30.00 in 1.8 mi East 8.1 mph - 0.01 in Snow Light Snow
6:55 PM 21.9 °F 12.5 °F 17.1 °F 82% 30.03 in 1.2 mi ENE 8.1 mph - 0.02 in Snow Light Snow
7:20 PM 21.0 °F 10.6 °F 17.1 °F 85% 29.98 in 0.8 mi ENE 9.2 mph 20.7 mph 0.01 in Snow Light Snow
7:55 PM 21.0 °F 11.4 °F 17.1 °F 85% 30.00 in 0.8 mi ENE 8.1 mph - 0.04 in Snow Light Snow
8:03 PM 21.0 °F 9.3 °F 17.1 °F 85% 29.96 in 0.8 mi East 11.5 mph - 0.01 in Snow Light Snow
8:08 PM 21.0 °F 11.4 °F 17.1 °F 85% 29.96 in 1.2 mi ENE 8.1 mph - 0.01 in Snow Light Snow
8:18 PM 21.0 °F 11.4 °F 17.1 °F 85% 29.95 in 2.0 mi ENE 8.1 mph - 0.01 in Snow Light Snow
8:36 PM 21.0 °F 9.9 °F 17.1 °F 85% 29.93 in 1.2 mi NE 10.4 mph - 0.01 in Snow Light Snow
8:43 PM 19.9 °F 7.9 °F 16.0 °F 85% 29.92 in 1.0 mi NE 11.5 mph 17.3 mph 0.02 in Snow Light Snow
8:55 PM 19.9 °F 8.6 °F 16.0 °F 85% 29.95 in 1.0 mi NE 10.4 mph 17.3 mph 0.02 in Snow Light Snow
8:58 PM 19.9 °F 10.1 °F 16.0 °F 85% 29.92 in 0.8 mi ENE 8.1 mph 17.3 mph 0.01 in Snow Light Snow
9:15 PM 19.9 °F 7.9 °F 16.0 °F 85% 29.92 in 1.2 mi ENE 11.5 mph 18.4 mph 0.02 in Snow Light Snow
9:29 PM 19.9 °F 10.1 °F 16.0 °F 85% 29.91 in 0.8 mi NE 8.1 mph - 0.02 in Snow Light Snow
9:47 PM 19.9 °F 9.3 °F 16.0 °F 85% 29.90 in 1.0 mi ENE 9.2 mph 17.3 mph 0.03 in Snow Light Snow
9:55 PM 19.9 °F 10.1 °F 16.0 °F 85% 29.92 in 1.2 mi ENE 8.1 mph - 0.03 in Snow Light Snow
10:21 PM 19.9 °F 8.6 °F 16.0 °F 85% 29.87 in 1.0 mi ENE 10.4 mph 17.3 mph 0.03 in Snow Light Snow
10:31 PM 19.9 °F 7.9 °F 16.0 °F 85% 29.86 in 0.8 mi NE 11.5 mph 17.3 mph 0.03 in Snow Light Snow
10:44 PM 19.9 °F 8.6 °F 16.0 °F 85% 29.86 in 0.8 mi NE 10.4 mph 18.4 mph 0.04 in Snow Light Snow
10:52 PM 19.4 °F 9.5 °F 15.8 °F 86% 29.85 in 1.0 mi NE 8.1 mph - 0.04 in Snow Light Snow
10:55 PM 19.9 °F 10.1 °F 16.0 °F 85% 29.88 in 1.0 mi NE 8.1 mph - 0.05 in Snow Light Snow
11:11 PM 19.9 °F 11.1 °F 16.0 °F 85% 29.85 in 1.0 mi NE 6.9 mph - 0.02 in Snow Light Snow
11:36 PM 19.9 °F 11.1 °F 16.0 °F 85% 29.83 in 1.0 mi ENE 6.9 mph - 0.03 in Snow Light Snow
11:55 PM 19.9 °F 10.1 °F 16.0 °F 85% 29.86 in 1.2 mi ENE 8.1 mph - 0.04 in Snow Light Snow